Location: Austin
(30.3000°N, 97.7500°W)
Time: 01:02:10
(UTC-06:00)

Delta 2 Rocket - Pass Details

Date: 04 November 2025
Orbit: 358 x 518 km, 35.6° (Epoch: 15 November)

Event Time Altitude Azimuth Distance (km) Brightness Sun altitude
Rises 19:09:44 0° 258° (WSW) 2,606 8.4 -19.5°
Reaches altitude 10° 19:12:02 10° 262° (W) 1,705 7.0 -20.0°
Maximum altitude 19:15:55 62° 343° (NNW) 552 3.3 -20.9°
Enters shadow 19:16:14 59° 11° (N) 566 3.2 -20.9°
